Torna al catalogo

EXPLORER 30

AttivoScienzaLEO
NORAD 1738·PAYLOAD·🇺🇸 United States

Lanciato Nov 19, 1965 da Wallops Flight Facility

Loading…

Prossimi Passaggi (prossime 24 ore)

TLE

AggiornatoSource: Space-Track

Epoca: Sep 14, 2026, 14:09 UTC

1 01738U 65093A   26257.58976255 -.00000027  00000-0  36313-4 0  9991
2 01738  59.7071 300.7164 0137199 115.7735 245.7535 14.41869114169286

Traccia EXPLORER 30 in tempo reale con AllMySat

Download on the App Store